Tracking 34408 objects as of 14-Jun-2026
HD Live streaming from Space Station
objects crossing your sky now

COSMOS 970 DEB

Track COSMOS 970 DEB now!
10-day predictions


NORAD ID: 13948
Int'l Code: 1977-121BD
Perigee: 901.0 km
Apogee: 997.5 km
Inclination: 65.8 °
Period: 103.9 minutes
Semi major axis: 7320 km
RCS: 0.0056 m2 (small)
Launch date: December 21, 1977
Source: Commonwealth of Independent States (former USSR) (CIS)
Launch site: TYURATAM MISSILE AND SPACE COMPLEX (TTMTR)

Note: This is SATELLITE DEBRIS
Your satellite tracking list
Your tracking list is empty




NASA's NSSDC Master Catalog

Two Line Element Set (TLE):
1 13948U 77121BD  26164.95170435  .00001151  00000-0  10510-2 0  9993
2 13948  65.7590  90.1064 0065928 345.3500 136.3018 13.86166836302903
Source of the keplerian elements: AFSPC